Regional Weather Roundup
Issued by NWS Cleveland, OH

Home | Current Version | Previous Version | Graphics & Text | Print | Product List | Glossary On
Versions: 1 2 3 4 5 6 7 8 9 10 11 12 13 14 15 16 17 18 19 20 21 22 23 24 25 26 27 28 29 30 31 32 33 34 35 36 37 38 39 40 41 42 43 44 45 46 47 48 49 50
049
ASUS41 KCLE 191710
RWRCLE
OHIO REGIONAL WEATHER ROUNDUP
NATIONAL WEATHER SERVICE CLEVELAND, OH
1200 PM EST MON FEB 19 2018

NOTE: "FAIR" INDICATES FEW OR NO CLOUDS BELOW 12,000 FEET WITH NO
SIGNIFICANT WEATHER AND/OR OBSTRUCTIONS TO VISIBILITY.

OHZ001>008-015>018-024>027-034-035-043-044-191800-
   NORTHWEST OHIO

CITY           SKY/WX    TMP DP  RH WIND       PRES   REMARKS
DEFIANCE       LGT RAIN  47  46  97 S9        29.99S FOG
FINDLAY        CLOUDY    52  49  89 S10       30.02F FOG
TOLEDO EXPRESS RAIN      47  47 100 S6        29.99F FOG
TOLEDO EXEC    LGT RAIN  49  47  93 S9        30.01F FOG
LIMA           CLOUDY    52  52 100 S9        30.02F FOG
$$

OHZ009>014-019>023-028>033-038-089-191800-
   NORTHEAST OHIO

CITY           SKY/WX    TMP DP  RH WIND       PRES   REMARKS
CLE-HOPKINS    LGT RAIN  49  47  93 S10       30.10R FOG
CLE-LAKEFRONT  RAIN      48  46  93 S15       30.07R FOG
CUY CO. ARPT   LGT RAIN  50  46  87 SW17      30.09R FOG
LORAIN-ELYRIA  RAIN      46  42  86 S10       30.08R FOG
ASHTABULA      LGT RAIN  46  45  96 S10       30.09S FOG
AKRON-CANTON   LGT RAIN  50  47  89 S9        30.10R FOG
WOOSTER        RAIN      47  47 100 S9        30.10S FOG
MANSFIELD      CLOUDY    51  50  96 S12       30.07R
YOUNGSTOWN     LGT RAIN  47  45  93 S10G20    30.11S FOG
$$

OHZ042-051>053-060>062-070>072-077>081-191800-
  SOUTHWEST OHIO

CITY           SKY/WX    TMP DP  RH WIND       PRES   REMARKS
CINC-COVINGTON CLOUDY    68  59  73 SW20G29   30.06R
CINC-LUNKEN    CLOUDY    70  59  68 SW24G32   30.07S
HAMILTON       CLOUDY    68  59  73 SW14G25   30.06S
DAYTON         CLOUDY    59  59 100 S13       30.05S
WRIGHT-PAT AFB PTSUNNY   63  63 100 S16       30.05R
DAYTON GENERAL PTSUNNY   65  57  75 SW16G25   30.05R
WILMINGTON     CLOUDY    63  59  87 S16       30.08S
$$

OHZ036-037-039>041-045>050-054>059-063>069-073>076-082>088-191800-
  CENTRAL AND SOUTHEAST OHIO

CITY           SKY/WX    TMP DP  RH WIND       PRES   REMARKS
COLUMBUS       CLOUDY    58  55  90 S13       30.10R
OSU AIRPORT    CLOUDY    54  54 100 SE7       30.08R
BOLTON FIELD   CLOUDY    54  54 100 S7        30.09R
RICKENBACK AFB CLOUDY    58  56  94 S12       30.09S
NEWARK         PTSUNNY   56  52  86 S10       30.10R
MARION         CLOUDY    50  49  96 S9        30.06F FOG
LANCASTER      FAIR      60  54  80 SW13      30.11S
ZANESVILLE     CLOUDY    58  52  80 SW13      30.12S
NEW PHILLY     NOT AVBL
$$




USA.gov is the U.S. government's official web portal to all federal, state and local government web resources and services.